| time (UTC) | temp F | wind direction | speed knots | gust knots | rain 1hr in | rain 24hr in | rain mn in | humidity % | barometer mb |
| 20260903101002 | 57 | 197 | 0.0 | 1.7 | 0.00 | 0.00 | 0.00 | 68 | 1016.7 |
| 20260903100503 | 57 | 197 | 0.0 | 1.7 | 0.00 | 0.00 | 0.00 | 68 | 1016.6 |
| 20260903100004 | 57 | 209 | 0.0 | 1.7 | 0.00 | 0.00 | 0.00 | 68 | 1016.5 |
| 20260903095502 | 57 | 209 | 0.0 | 1.7 | 0.00 | 0.00 | 0.00 | 68 | 1016.5 |
| 20260903095004 | 57 | 189 | 0.0 | 1.7 | 0.00 | 0.00 | 0.00 | 67 | 1016.6 |
| 20260903094504 | 58 | 191 | 0.0 | 1.7 | 0.00 | 0.00 | 0.00 | 68 | 1016.7 |
| 20260903094004 | 58 | 191 | 0.0 | 1.7 | 0.00 | 0.00 | 0.00 | 68 | 1016.8 |
| 20260903093503 | 58 | 192 | 0.0 | 1.7 | 0.00 | 0.00 | 0.00 | 67 | 1016.8 |
| 20260903090003 | 60 | 196 | 0.0 | 1.7 | 0.00 | 0.00 | 0.00 | 64 | 1016.6 |
| 20260903085503 | 60 | 196 | 0.0 | 1.7 | 0.00 | 0.00 | 0.00 | 63 | 1016.6 |
| 20260903085002 | 60 | 196 | 0.0 | 1.7 | 0.00 | 0.00 | 0.00 | 62 | 1016.5 |
| 20260903084509 | 60 | 211 | 0.0 | 1.7 | 0.00 | 0.00 | 0.00 | 62 | 1016.4 |
| 20260903084003 | 60 | 212 | 0.0 | 1.7 | 0.00 | 0.00 | 0.00 | 63 | 1016.5 |
| 20260903083505 | 60 | 212 | 0.0 | 1.7 | 0.00 | 0.00 | 0.00 | 63 | 1016.5 |
| 20260903083003 | 61 | 212 | 0.0 | 1.7 | 0.00 | 0.00 | 0.00 | 63 | 1016.5 |
| 20260903082503 | 61 | 212 | 0.0 | 0.0 | 0.00 | 0.00 | 0.00 | 62 | 1016.5 |
| 20260903082003 | 61 | 212 | 0.0 | 1.7 | 0.00 | 0.00 | 0.00 | 61 | 1016.5 |
| 20260903081503 | 61 | 212 | 0.0 | 1.7 | 0.00 | 0.00 | 0.00 | 61 | 1016.5 |
| 20260903081002 | 62 | 212 | 0.0 | 1.7 | 0.00 | 0.00 | 0.00 | 61 | 1016.5 |
| 20260903080502 | 62 | 212 | 0.0 | 1.7 | 0.00 | 0.00 | 0.00 | 61 | 1016.6 |
| 20260903080006 | 62 | 215 | 0.0 | 1.7 | 0.00 | 0.00 | 0.00 | 61 | 1016.6 |
| 20260903075503 | 63 | 204 | 0.0 | 1.7 | 0.00 | 0.00 | 0.00 | 60 | 1016.6 |
| 20260903075003 | 63 | 215 | 0.0 | 1.7 | 0.00 | 0.00 | 0.00 | 60 | 1016.6 |
| 20260903074503 | 64 | 203 | 0.0 | 1.7 | 0.00 | 0.00 | 0.00 | 58 | 1016.5 |
| 20260903074003 | 64 | 215 | 0.0 | 1.7 | 0.00 | 0.00 | 0.00 | 57 | 1016.5 |
| 20260903073503 | 64 | 211 | 0.0 | 1.7 | 0.00 | 0.00 | 0.00 | 57 | 1016.5 |
| 20260903073004 | 65 | 211 | 0.0 | 1.7 | 0.00 | 0.00 | 0.00 | 55 | 1016.5 |
| 20260903072502 | 65 | 211 | 0.0 | 1.7 | 0.00 | 0.00 | 0.00 | 55 | 1016.4 |
| 20260903072003 | 65 | 211 | 0.0 | 1.7 | 0.00 | 0.00 | 0.00 | 56 | 1016.6 |
| 20260903071504 | 65 | 211 | 0.0 | 1.7 | 0.00 | 0.00 | 0.00 | 54 | 1016.7 |
| 20260903071005 | 65 | 211 | 0.0 | 1.7 | 0.00 | 0.00 | 0.00 | 54 | 1016.8 |
| 20260903070503 | 66 | 206 | 0.0 | 1.7 | 0.00 | 0.00 | 0.00 | 55 | 1016.8 |
| 20260903070001 | 66 | 205 | 0.0 | 1.7 | 0.00 | 0.00 | 0.00 | 54 | 1016.9 |
| 20260903065501 | 66 | 205 | 0.0 | 1.7 | 0.00 | 0.00 | 0.00 | 54 | 1016.9 |
| 20260903065003 | 66 | 202 | 0.0 | 1.7 | 0.00 | 0.00 | 0.00 | 52 | 1017.0 |
| 20260903064503 | 66 | 200 | 0.0 | 1.7 | 0.00 | 0.00 | 0.00 | 52 | 1016.9 |
| 20260903064003 | 66 | 200 | 0.0 | 1.7 | 0.00 | 0.00 | 0.00 | 52 | 1016.9 |
| 20260903063502 | 66 | 219 | 0.0 | 1.7 | 0.00 | 0.00 | 0.00 | 52 | 1017.0 |
| 20260903063004 | 66 | 234 | 0.0 | 1.7 | 0.00 | 0.00 | 0.00 | 54 | 1017.0 |
| 20260903062505 | 66 | 234 | 0.0 | 1.7 | 0.00 | 0.00 | 0.00 | 55 | 1017.1 |
| 20260903062005 | 66 | 162 | 0.0 | 1.7 | 0.00 | 0.00 | 0.00 | 56 | 1017.1 |
| 20260903061510 | 66 | 178 | 0.0 | 1.7 | 0.00 | 0.00 | 0.00 | 56 | 1017.1 |
| 20260903061007 | 65 | 220 | 0.0 | 1.7 | 0.00 | 0.00 | 0.00 | 56 | 1017.1 |
| 20260903060503 | 65 | 197 | 0.0 | 1.7 | 0.00 | 0.00 | 0.00 | 58 | 1017.1 |
| 20260903060003 | 65 | 163 | 0.0 | 1.7 | 0.00 | 0.00 | 0.00 | 1017.1 | |
| 20260903055504 | 65 | 144 | 0.0 | 1.7 | 0.00 | 0.00 | 0.00 | 60 | 1017.1 |
| 20260903055002 | 65 | 144 | 0.0 | 1.7 | 0.00 | 0.00 | 0.00 | 60 | 1017.0 |
| 20260903054503 | 65 | 125 | 0.0 | 1.7 | 0.00 | 0.00 | 0.00 | 60 | 1017.1 |
| 20260903054002 | 65 | 136 | 0.0 | 1.7 | 0.00 | 0.00 | 0.00 | 60 | 1016.9 |
| 20260903053504 | 65 | 136 | 0.0 | 1.7 | 0.00 | 0.00 | 0.00 | 60 | 1017.0 |
| 20260903053005 | 65 | 127 | 0.0 | 1.7 | 0.00 | 0.00 | 0.00 | 59 | 1017.1 |
| 20260903052503 | 65 | 56 | 0.0 | 0.0 | 0.00 | 0.00 | 0.00 | 59 | 1017.0 |
| 20260903052002 | 66 | 54 | 0.0 | 1.7 | 0.00 | 0.00 | 0.00 | 58 | 1017.0 |
| 20260903051506 | 66 | 54 | 0.0 | 1.7 | 0.00 | 0.00 | 0.00 | 1016.9 | |
| 20260903051002 | 66 | 55 | 0.0 | 1.7 | 0.00 | 0.00 | 0.00 | 1017.1 | |
| 20260903050503 | 66 | 76 | 0.0 | 1.7 | 0.00 | 0.00 | 0.00 | 1017.1 | |
| 20260903050019 | 66 | 76 | 0.0 | 1.7 | 0.00 | 0.00 | 0.00 | 59 | 1017.1 |
| 20260903045504 | 67 | 86 | 0.0 | 1.7 | 0.00 | 0.00 | 0.00 | 59 | 1017.2 |
| 20260903045003 | 67 | 28 | 0.0 | 1.7 | 0.00 | 0.00 | 0.00 | 58 | 1017.1 |
| 20260903044516 | 67 | 28 | 0.0 | 1.7 | 0.00 | 0.00 | 0.00 | 57 | 1016.9 |
| 20260903044003 | 67 | 11 | 0.0 | 1.7 | 0.00 | 0.00 | 0.00 | 57 | 1017.0 |
| 20260903043503 | 67 | 61 | 0.0 | 1.7 | 0.00 | 0.00 | 0.00 | 58 | 1017.2 |
| 20260903043003 | 67 | 75 | 0.0 | 1.7 | 0.00 | 0.00 | 0.00 | 56 | 1017.2 |
| 20260903042502 | 67 | 175 | 0.0 | 1.7 | 0.00 | 0.00 | 0.00 | 56 | 1017.2 |
| 20260903042007 | 67 | 192 | 0.0 | 1.7 | 0.00 | 0.00 | 0.00 | 56 | 1017.3 |
| 20260903041510 | 67 | 176 | 0.0 | 1.7 | 0.00 | 0.00 | 0.00 | 1017.5 | |
| 20260903041003 | 67 | 157 | 0.0 | 1.7 | 0.00 | 0.00 | 0.00 | 55 | 1017.6 |
| 20260903040502 | 68 | 168 | 0.0 | 1.7 | 0.00 | 0.00 | 0.00 | 55 | 1017.4 |
| 20260903040008 | 68 | 190 | 0.0 | 1.7 | 0.00 | 0.00 | 0.00 | 55 | 1017.2 |
| 20260903035503 | 68 | 181 | 0.0 | 1.7 | 0.00 | 0.00 | 0.00 | 54 | 1017.1 |
| 20260903035002 | 68 | 184 | 0.0 | 1.7 | 0.00 | 0.00 | 0.00 | 54 | 1017.1 |
| 20260903034506 | 69 | 184 | 0.9 | 1.7 | 0.00 | 0.00 | 0.00 | 53 | 1017.0 |
| 20260903034004 | 69 | 105 | 0.0 | 1.7 | 0.00 | 0.00 | 0.00 | 52 | 1017.0 |
| 20260903033507 | 70 | 73 | 0.0 | 1.7 | 0.00 | 0.00 | 0.00 | 52 | 1016.9 |
| 20260903033003 | 70 | 71 | 0.0 | 1.7 | 0.00 | 0.00 | 0.00 | 51 | 1016.8 |
| 20260903032504 | 71 | 113 | 0.0 | 1.7 | 0.00 | 0.00 | 0.00 | 50 | 1017.1 |
| 20260903032004 | 71 | 136 | 0.0 | 1.7 | 0.00 | 0.00 | 0.00 | 49 | 1017.2 |
| 20260903031506 | 71 | 217 | 0.0 | 2.6 | 0.00 | 0.00 | 0.00 | 48 | 1017.3 |
| 20260903031003 | 72 | 190 | 0.0 | 2.6 | 0.00 | 0.00 | 0.00 | 47 | 1017.3 |
| 20260903030506 | 72 | 159 | 0.0 | 1.7 | 0.00 | 0.00 | 0.00 | 47 | 1017.2 |
| 20260903030004 | 72 | 243 | 0.0 | 1.7 | 0.00 | 0.00 | 0.00 | 46 | 1017.1 |
| 20260903025503 | 73 | 243 | 0.0 | 1.7 | 0.00 | 0.00 | 0.00 | 46 | 1017.0 |
| 20260903025003 | 73 | 244 | 0.0 | 1.7 | 0.00 | 0.00 | 0.00 | 45 | 1016.9 |
| 20260903024504 | 73 | 229 | 0.0 | 3.5 | 0.00 | 0.00 | 0.00 | 45 | 1016.8 |
| 20260903024004 | 73 | 351 | 0.9 | 3.5 | 0.00 | 0.00 | 0.00 | 44 | 1016.8 |
| 20260903023503 | 74 | 13 | 0.9 | 2.6 | 0.00 | 0.00 | 0.00 | 45 | 1016.6 |
| 20260903023008 | 74 | 13 | 0.9 | 4.3 | 0.00 | 0.00 | 0.00 | 45 | 1016.6 |
| 20260903022504 | 74 | 40 | 1.7 | 4.3 | 0.00 | 0.00 | 0.00 | 44 | 1016.7 |
| 20260903022003 | 74 | 57 | 0.0 | 1.7 | 0.00 | 0.00 | 0.00 | 43 | 1016.8 |
| 20260903021505 | 75 | 210 | 0.0 | 1.7 | 0.00 | 0.00 | 0.00 | 42 | 1016.8 |
| 20260903021004 | 75 | 196 | 0.0 | 2.6 | 0.00 | 0.00 | 0.00 | 42 | 1016.5 |
| 20260903020506 | 76 | 34 | 0.9 | 2.6 | 0.00 | 0.00 | 0.00 | 40 | 1016.1 |
| 20260903020006 | 76 | 326 | 0.9 | 2.6 | 0.00 | 0.00 | 0.00 | 40 | 1015.9 |
| 20260903015506 | 76 | 19 | 0.0 | 0.9 | 0.00 | 0.00 | 0.00 | 40 | 1015.8 |
| 20260903015005 | 76 | 19 | 0.0 | 1.7 | 0.00 | 0.00 | 0.00 | 41 | 1015.9 |
| 20260903014507 | 76 | 19 | 0.0 | 1.7 | 0.00 | 0.00 | 0.00 | 40 | 1015.9 |
| 20260903014003 | 76 | 19 | 0.0 | 1.7 | 0.00 | 0.00 | 0.00 | 40 | 1015.9 |
| 20260903013503 | 76 | 18 | 0.0 | 1.7 | 0.00 | 0.00 | 0.00 | 39 | 1015.8 |
| 20260903013007 | 77 | 25 | 0.0 | 1.7 | 0.00 | 0.00 | 0.00 | 40 | 1015.6 |
| 20260903012504 | 77 | 25 | 0.0 | 1.7 | 0.00 | 0.00 | 0.00 | 39 | 1015.6 |
| 20260903012004 | 77 | 28 | 0.0 | 2.6 | 0.00 | 0.00 | 0.00 | 38 | 1015.6 |
| 20260903011507 | 77 | 55 | 0.9 | 2.6 | 0.00 | 0.00 | 0.00 | 38 | 1015.6 |
| 20260903011003 | 78 | 22 | 0.0 | 1.7 | 0.00 | 0.00 | 0.00 | 38 | 1015.6 |
| 20260903010505 | 79 | 18 | 0.0 | 1.7 | 0.00 | 0.00 | 0.00 | 39 | 1015.6 |
| 20260903010008 | 79 | 347 | 0.0 | 1.7 | 0.00 | 0.00 | 0.00 | 38 | 1015.4 |
| 20260903005504 | 80 | 342 | 0.0 | 1.7 | 0.00 | 0.00 | 0.00 | 36 | 1015.3 |
| 20260903005008 | 80 | 340 | 0.0 | 1.7 | 0.00 | 0.00 | 0.00 | 33 | 1015.4 |
| 20260903004507 | 81 | 338 | 0.0 | 1.7 | 0.00 | 0.00 | 0.00 | 32 | 1015.4 |
| 20260903004011 | 81 | 338 | 0.0 | 1.7 | 0.00 | 0.00 | 0.00 | 33 | 1015.4 |
| 20260903003504 | 81 | 319 | 0.0 | 1.7 | 0.00 | 0.00 | 0.00 | 32 | 1015.6 |
| 20260903003008 | 81 | 315 | 0.0 | 1.7 | 0.00 | 0.00 | 0.00 | 33 | 1015.6 |
| 20260903002507 | 82 | 315 | 0.0 | 1.7 | 0.00 | 0.00 | 0.00 | 32 | 1015.6 |
| 20260903002004 | 82 | 343 | 0.0 | 1.7 | 0.00 | 0.00 | 0.00 | 31 | 1015.6 |
| 20260903001508 | 82 | 283 | 0.0 | 1.7 | 0.00 | 0.00 | 0.00 | 30 | 1015.6 |
| 20260903001004 | 83 | 246 | 0.0 | 2.6 | 0.00 | 0.00 | 0.00 | 30 | 1015.4 |
| 20260903000507 | 83 | 272 | 0.9 | 5.2 | 0.00 | 0.00 | 0.00 | 29 | 1015.3 |
| 20260903000018 | 84 | 360 | 0.9 | 5.2 | 0.00 | 0.00 | 0.00 | 29 | 1015.2 |
| 20260902235507 | 84 | 254 | 0.9 | 3.5 | 0.00 | 0.00 | 0.00 | 29 | 1015.3 |
| 20260902235007 | 84 | 254 | 0.9 | 7.0 | 0.00 | 0.00 | 0.00 | 29 | 1015.3 |
| 20260902234514 | 84 | 265 | 2.6 | 7.0 | 0.00 | 0.00 | 0.00 | 28 | 1015.4 |
| 20260902234008 | 84 | 272 | 0.9 | 4.3 | 0.00 | 0.00 | 0.00 | 28 | 1015.4 |
| 20260902233507 | 84 | 292 | 0.9 | 7.8 | 0.00 | 0.00 | 0.00 | 29 | 1015.4 |
| 20260902233008 | 84 | 274 | 1.7 | 8.7 | 0.00 | 0.00 | 0.00 | 29 | 1015.5 |
| 20260902232507 | 84 | 207 | 1.7 | 8.7 | 0.00 | 0.00 | 0.00 | 28 | 1015.6 |
| 20260902232007 | 83 | 284 | 2.6 | 7.0 | 0.00 | 0.00 | 0.00 | 28 | 1015.8 |
| 20260902231521 | 83 | 317 | 1.7 | 4.3 | 0.00 | 0.00 | 0.00 | 27 | 1015.9 |
| 20260902231004 | 84 | 30 | 2.6 | 8.7 | 0.00 | 0.00 | 0.00 | 26 | 1015.9 |
| 20260902230506 | 84 | 180 | 2.6 | 8.7 | 0.00 | 0.00 | 0.00 | 25 | 1016.0 |
| 20260902230011 | 84 | 236 | 2.6 | 11.3 | 0.00 | 0.00 | 0.00 | 25 | 1016.0 |
| 20260902225508 | 84 | 241 | 1.7 | 13.9 | 0.00 | 0.00 | 0.00 | 24 | 1015.9 |
| 20260902225007 | 85 | 161 | 6.1 | 12.2 | 0.00 | 0.00 | 0.00 | 24 | 1015.9 |
| 20260902224510 | 87 | 247 | 6.1 | 9.6 | 0.00 | 0.00 | 0.00 | 24 | 1015.7 |
| 20260902224008 | 87 | 124 | 0.0 | 1.7 | 0.00 | 0.00 | 0.00 | 24 | 1015.5 |
| 20260902223509 | 88 | 110 | 0.0 | 1.7 | 0.00 | 0.00 | 0.00 | 24 | 1015.3 |
| 20260902223013 | 88 | 111 | 0.0 | 1.7 | 0.00 | 0.00 | 0.00 | 23 | 1015.1 |
| 20260902222509 | 88 | 212 | 0.0 | 1.7 | 0.00 | 0.00 | 0.00 | 22 | 1015.0 |
| 20260902222012 | 89 | 138 | 0.0 | 2.6 | 0.00 | 0.00 | 0.00 | 22 | 1015.0 |
| 20260902221516 | 89 | 156 | 0.0 | 2.6 | 0.00 | 0.00 | 0.00 | 21 | 1014.9 |
| 20260902221007 | 90 | 146 | 0.9 | 2.6 | 0.00 | 0.00 | 0.00 | 21 | 1014.9 |
| 20260902220508 | 91 | 171 | 0.0 | 4.3 | 0.00 | 0.00 | 0.00 | 21 | 1014.8 |
| 20260902220015 | 90 | 122 | 0.9 | 4.3 | 0.00 | 0.00 | 0.00 | 20 | 1015.0 |
| 20260902215508 | 90 | 139 | 0.9 | 5.2 | 0.00 | 0.00 | 0.00 | 22 | 1015.0 |
| 20260902215005 | 89 | 150 | 0.9 | 5.2 | 0.00 | 0.00 | 0.00 | 23 | 1015.0 |
| 20260902214510 | 88 | 352 | 1.7 | 5.2 | 0.00 | 0.00 | 0.00 | 22 | 1015.0 |
| 20260902214007 | 88 | 42 | 1.7 | 3.5 | 0.00 | 0.00 | 0.00 | 22 | 1015.1 |
| 20260902213507 | 88 | 157 | 0.9 | 6.1 | 0.00 | 0.00 | 0.00 | 22 | 1015.2 |
| 20260902213015 | 88 | 168 | 1.7 | 6.1 | 0.00 | 0.00 | 0.00 | 22 | 1015.2 |
| 20260902212506 | 89 | 136 | 1.7 | 6.1 | 0.00 | 0.00 | 0.00 | 23 | 1015.3 |
| 20260902212003 | 88 | 103 | 1.7 | 7.0 | 0.00 | 0.00 | 0.00 | 22 | 1015.3 |
| 20260902211511 | 88 | 92 | 2.6 | 7.0 | 0.00 | 0.00 | 0.00 | 24 | 1015.4 |
| 20260902211010 | 88 | 65 | 0.9 | 5.2 | 0.00 | 0.00 | 0.00 | 24 | 1015.4 |
| 20260902210507 | 88 | 141 | 0.9 | 2.6 | 0.00 | 0.00 | 0.00 | 23 | 1015.5 |
| 20260902210015 | 88 | 101 | 0.9 | 2.6 | 0.00 | 0.00 | 0.00 | 23 | 1015.7 |
| 20260902205508 | 88 | 48 | 0.0 | 2.6 | 0.00 | 0.00 | 0.00 | 22 | 1015.7 |
| 20260902205008 | 88 | 23 | 0.9 | 2.6 | 0.00 | 0.00 | 0.00 | 22 | 1016.0 |
| 20260902204512 | 88 | 87 | 0.9 | 6.1 | 0.00 | 0.00 | 0.00 | 22 | 1016.1 |
| 20260902204005 | 89 | 131 | 0.9 | 6.1 | 0.00 | 0.00 | 0.00 | 21 | 1016.3 |
| 20260902203506 | 89 | 153 | 0.9 | 6.1 | 0.00 | 0.00 | 0.00 | 21 | 1016.4 |
| 20260902203014 | 90 | 142 | 2.6 | 6.1 | 0.00 | 0.00 | 0.00 | 21 | 1016.4 |
| 20260902202508 | 90 | 209 | 0.9 | 3.5 | 0.00 | 0.00 | 0.00 | 21 | 1016.5 |
| 20260902202010 | 90 | 84 | 0.9 | 3.5 | 0.00 | 0.00 | 0.00 | 21 | 1016.6 |
| 20260902201514 | 90 | 101 | 0.0 | 3.5 | 0.00 | 0.00 | 0.00 | 22 | 1016.6 |
| 20260902201011 | 90 | 139 | 0.9 | 7.8 | 0.00 | 0.00 | 0.00 | 22 | 1016.8 |
| 20260902200510 | 90 | 61 | 1.7 | 7.8 | 0.00 | 0.00 | 0.00 | 22 | 1016.7 |
| 20260902200007 | 89 | 157 | 0.9 | 6.1 | 0.00 | 0.00 | 0.00 | 23 | 1016.8 |
| 20260902195507 | 89 | 181 | 1.7 | 6.1 | 0.00 | 0.00 | 0.00 | 22 | 1016.9 |
| 20260902195012 | 89 | 125 | 1.7 | 7.8 | 0.00 | 0.00 | 0.00 | 22 | 1017.0 |
| 20260902194513 | 88 | 159 | 0.9 | 7.8 | 0.00 | 0.00 | 0.00 | 23 | 1017.0 |
| 20260902194011 | 89 | 145 | 2.6 | 7.8 | 0.00 | 0.00 | 0.00 | 23 | 1017.1 |
| 20260902193510 | 89 | 74 | 1.7 | 6.1 | 0.00 | 0.00 | 0.00 | 23 | 1017.1 |
| 20260902193015 | 89 | 108 | 1.7 | 8.7 | 0.00 | 0.00 | 0.00 | 24 | 1017.3 |
| 20260902192510 | 88 | 84 | 2.6 | 8.7 | 0.00 | 0.00 | 0.00 | 25 | 1017.3 |
| 20260902192006 | 87 | 159 | 1.7 | 8.7 | 0.00 | 0.00 | 0.00 | 24 | 1017.3 |
| 20260902191512 | 87 | 53 | 2.6 | 8.7 | 0.00 | 0.00 | 0.00 | 25 | 1017.3 |
| 20260902191009 | 88 | 214 | 1.7 | 5.2 | 0.00 | 0.00 | 0.00 | 25 | 1017.4 |
| 20260902190511 | 88 | 14 | 0.0 | 5.2 | 0.00 | 0.00 | 0.00 | 24 | 1017.3 |
| 20260902190021 | 87 | 91 | 1.7 | 4.3 | 0.00 | 0.00 | 0.00 | 24 | 1017.5 |
| 20260902185512 | 87 | 351 | 0.9 | 5.2 | 0.00 | 0.00 | 0.00 | 25 | 1017.5 |
| 20260902185015 | 87 | 115 | 1.7 | 5.2 | 0.00 | 0.00 | 0.00 | 24 | 1017.6 |
| 20260902184517 | 87 | 87 | 1.7 | 5.2 | 0.00 | 0.00 | 0.00 | 24 | 1017.7 |
| 20260902184003 | 87 | 49 | 1.7 | 4.3 | 0.00 | 0.00 | 0.00 | 24 | 1017.8 |
| 20260902183507 | 87 | 109 | 0.9 | 3.5 | 0.00 | 0.00 | 0.00 | 26 | 1017.9 |
| 20260902183014 | 87 | 23 | 0.9 | 2.6 | 0.00 | 0.00 | 0.00 | 24 | 1018.2 |
| 20260902182513 | 86 | 106 | 0.9 | 3.5 | 0.00 | 0.00 | 0.00 | 26 | 1018.4 |
| 20260902182009 | 86 | 257 | 0.9 | 3.5 | 0.00 | 0.00 | 0.00 | 25 | 1018.5 |
| 20260902181517 | 86 | 187 | 0.9 | 5.2 | 0.00 | 0.00 | 0.00 | 26 | 1018.6 |
| 20260902181011 | 86 | 96 | 0.9 | 5.2 | 0.00 | 0.00 | 0.00 | 25 | 1018.7 |
| 20260902180511 | 86 | 59 | 0.9 | 5.2 | 0.00 | 0.00 | 0.00 | 25 | 1018.7 |
| 20260902180017 | 85 | 147 | 0.0 | 5.2 | 0.00 | 0.00 | 0.00 | 26 | 1018.7 |
| 20260902175511 | 85 | 78 | 0.9 | 5.2 | 0.00 | 0.00 | 0.00 | 26 | 1018.8 |
| 20260902175013 | 85 | 167 | 1.7 | 4.3 | 0.00 | 0.00 | 0.00 | 26 | 1019.0 |
| 20260902174520 | 85 | 172 | 0.9 | 3.5 | 0.00 | 0.00 | 0.00 | 27 | 1019.0 |
| 20260902174012 | 85 | 156 | 1.7 | 5.2 | 0.00 | 0.00 | 0.00 | 27 | 1019.0 |
| 20260902173514 | 84 | 197 | 1.7 | 5.2 | 0.00 | 0.00 | 0.00 | 28 | 1019.0 |
| 20260902173018 | 84 | 146 | 1.7 | 5.2 | 0.00 | 0.00 | 0.00 | 29 | 1019.0 |
| 20260902172508 | 84 | 26 | 0.9 | 6.1 | 0.00 | 0.00 | 0.00 | 28 | 1019.0 |
| 20260902172009 | 84 | 174 | 1.7 | 6.1 | 0.00 | 0.00 | 0.00 | 29 | 1019.0 |
| 20260902171514 | 84 | 80 | 0.0 | 5.2 | 0.00 | 0.00 | 0.00 | 29 | 1019.1 |
| 20260902171010 | 83 | 155 | 1.7 | 6.1 | 0.00 | 0.00 | 0.00 | 30 | 1019.2 |
| 20260902170511 | 83 | 125 | 0.9 | 6.1 | 0.00 | 0.00 | 0.00 | 30 | 1019.3 |
| 20260902170020 | 83 | 90 | 0.9 | 4.3 | 0.00 | 0.00 | 0.00 | 30 | 1019.4 |
| 20260902165511 | 83 | 112 | 1.7 | 3.5 | 0.00 | 0.00 | 0.00 | 29 | 1019.4 |
| 20260902165013 | 82 | 136 | 0.9 | 3.5 | 0.00 | 0.00 | 0.00 | 31 | 1019.5 |
| 20260902164512 | 82 | 128 | 0.9 | 5.2 | 0.00 | 0.00 | 0.00 | 31 | 1019.4 |
| 20260902164009 | 82 | 129 | 0.9 | 5.2 | 0.00 | 0.00 | 0.00 | 33 | 1019.6 |
| 20260902163511 | 81 | 209 | 0.0 | 6.1 | 0.00 | 0.00 | 0.00 | 32 | 1019.6 |
| 20260902163019 | 81 | 139 | 2.6 | 6.1 | 0.00 | 0.00 | 0.00 | 33 | 1019.6 |
| 20260902162512 | 81 | 129 | 0.9 | 6.1 | 0.00 | 0.00 | 0.00 | 33 | 1019.6 |
| 20260902162014 | 81 | 146 | 1.7 | 6.1 | 0.00 | 0.00 | 0.00 | 34 | 1019.5 |
| 20260902161533 | 80 | 158 | 0.9 | 6.1 | 0.00 | 0.00 | 0.00 | 35 | 1019.6 |
| 20260902161014 | 80 | 42 | 0.9 | 5.2 | 0.00 | 0.00 | 0.00 | 35 | 1019.6 |
| 20260902160508 | 79 | 154 | 0.9 | 5.2 | 0.00 | 0.00 | 0.00 | 35 | 1019.6 |
| 20260902160016 | 79 | 115 | 1.7 | 6.1 | 0.00 | 0.00 | 0.00 | 37 | 1019.5 |
| 20260902155513 | 78 | 129 | 1.7 | 6.1 | 0.00 | 0.00 | 0.00 | 35 | 1019.4 |
| 20260902155011 | 78 | 104 | 1.7 | 6.1 | 0.00 | 0.00 | 0.00 | 37 | 1019.5 |
| 20260902154533 | 77 | 116 | 0.9 | 3.5 | 0.00 | 0.00 | 0.00 | 36 | 1019.6 |
| 20260902154017 | 77 | 44 | 0.9 | 5.2 | 0.00 | 0.00 | 0.00 | 38 | 1019.5 |
| 20260902153513 | 77 | 9 | 1.7 | 5.2 | 0.00 | 0.00 | 0.00 | 38 | 1019.3 |
| 20260902153008 | 76 | 101 | 0.9 | 3.5 | 0.00 | 0.00 | 0.00 | 38 | 1019.4 |
| 20260902152508 | 76 | 97 | 0.9 | 3.5 | 0.00 | 0.00 | 0.00 | 38 | 1019.4 |
| 20260902152011 | 75 | 38 | 1.7 | 3.5 | 0.00 | 0.00 | 0.00 | 41 | 1019.3 |
| 20260902151525 | 74 | 98 | 0.9 | 4.3 | 0.00 | 0.00 | 0.00 | 41 | 1019.3 |
| 20260902151004 | 74 | 39 | 1.7 | 4.3 | 0.00 | 0.00 | 0.00 | 40 | 1019.3 |
| 20260902150504 | 73 | 52 | 1.7 | 4.3 | 0.00 | 0.00 | 0.00 | 41 | 1019.2 |
| 20260902150007 | 72 | 109 | 0.0 | 3.5 | 0.00 | 0.00 | 0.00 | 45 | 1019.2 |
| 20260902145504 | 72 | 279 | 0.9 | 2.6 | 0.00 | 0.00 | 0.00 | 49 | 1019.2 |
| 20260902145007 | 71 | 85 | 0.9 | 2.6 | 0.00 | 0.00 | 0.00 | 49 | 1019.1 |
| 20260902144520 | 70 | 344 | 0.9 | 2.6 | 0.00 | 0.00 | 0.00 | 49 | 1019.1 |
| 20260902144011 | 70 | 332 | 0.9 | 2.6 | 0.00 | 0.00 | 0.00 | 51 | 1019.2 |
| 20260902143513 | 68 | 336 | 0.9 | 1.7 | 0.00 | 0.00 | 0.00 | 51 | 1019.0 |
| 20260902143003 | 68 | 5 | 0.0 | 1.7 | 0.00 | 0.00 | 0.00 | 52 | 1019.1 |
| 20260902142503 | 66 | 22 | 0.0 | 1.7 | 0.00 | 0.00 | 0.00 | 54 | 1019.1 |
| 20260902142003 | 66 | 94 | 0.0 | 1.7 | 0.00 | 0.00 | 0.00 | 55 | 1019.1 |
| 20260902141508 | 65 | 234 | 0.0 | 1.7 | 0.00 | 0.00 | 0.00 | 55 | 1019.0 |
| 20260902141007 | 64 | 53 | 0.9 | 2.6 | 0.00 | 0.00 | 0.00 | 57 | 1019.1 |
| 20260902140507 | 64 | 59 | 0.9 | 2.6 | 0.00 | 0.00 | 0.00 | 59 | 1019.0 |
| 20260902140019 | 63 | 98 | 0.9 | 2.6 | 0.00 | 0.00 | 0.00 | 59 | 1019.1 |
| 20260902135514 | 63 | 57 | 0.9 | 2.6 | 0.00 | 0.00 | 0.00 | 58 | 1019.2 |
| 20260902135003 | 62 | 38 | 1.7 | 2.6 | 0.00 | 0.00 | 0.00 | 61 | 1019.1 |
| 20260902134509 | 61 | 182 | 0.0 | 2.6 | 0.00 | 0.00 | 0.00 | 58 | 1019.1 |
| 20260902134004 | 61 | 182 | 0.0 | 2.6 | 0.00 | 0.00 | 0.00 | 59 | 1019.1 |
| 20260902133506 | 61 | 5 | 0.0 | 1.7 | 0.00 | 0.00 | 0.00 | 60 | 1019.1 |
| 20260902133011 | 60 | 348 | 0.0 | 1.7 | 0.00 | 0.00 | 0.00 | 60 | 1019.0 |
| 20260902132511 | 59 | 338 | 0.0 | 1.7 | 0.00 | 0.00 | 0.00 | 61 | 1019.0 |
| 20260902132012 | 59 | 283 | 0.0 | 2.6 | 0.00 | 0.00 | 0.00 | 60 | 1018.9 |
| 20260902131526 | 58 | 232 | 0.9 | 2.6 | 0.00 | 0.00 | 0.00 | 59 | 1018.8 |
| 20260902131004 | 58 | 188 | 0.0 | 1.7 | 0.00 | 0.00 | 0.00 | 63 | 1018.8 |
| 20260902130504 | 57 | 219 | 0.0 | 1.7 | 0.00 | 0.00 | 0.00 | 64 | 1018.7 |
| 20260902130006 | 57 | 254 | 0.0 | 1.7 | 0.00 | 0.00 | 0.00 | 65 | 1018.7 |
| 20260902125507 | 57 | 290 | 0.0 | 1.7 | 0.00 | 0.00 | 0.00 | 66 | 1018.7 |
| 20260902125007 | 57 | 283 | 0.0 | 1.7 | 0.00 | 0.00 | 0.00 | 65 | 1018.6 |
| 20260902124517 | 57 | 227 | 0.0 | 1.7 | 0.00 | 0.00 | 0.00 | 64 | 1018.6 |
| 20260902124010 | 57 | 232 | 0.0 | 1.7 | 0.00 | 0.00 | 0.00 | 65 | 1018.7 |
| 20260902123513 | 57 | 243 | 0.0 | 1.7 | 0.00 | 0.00 | 0.00 | 65 | 1018.8 |
| 20260902123004 | 58 | 220 | 0.0 | 1.7 | 0.00 | 0.00 | 0.00 | 63 | 1018.7 |
| 20260902122504 | 58 | 213 | 0.0 | 1.7 | 0.00 | 0.00 | 0.00 | 62 | 1018.7 |
| 20260902122004 | 59 | 187 | 0.0 | 1.7 | 0.00 | 0.00 | 0.00 | 61 | 1018.7 |
| 20260902121511 | 59 | 190 | 0.0 | 1.7 | 0.00 | 0.00 | 0.00 | 58 | 1018.7 |
| 20260902121009 | 60 | 360 | 0.0 | 1.7 | 0.00 | 0.00 | 0.00 | 57 | 1018.6 |
| 20260902120513 | 60 | 360 | 0.0 | 1.7 | 0.00 | 0.00 | 0.00 | 58 | 1018.7 |
| 20260902120029 | 60 | 360 | 0.0 | 1.7 | 0.00 | 0.00 | 0.00 | 56 | 1018.6 |
| 20260902115516 | 61 | 352 | 0.0 | 1.7 | 0.00 | 0.00 | 0.00 | 54 | 1018.4 |
| 20260902115003 | 61 | 352 | 0.0 | 1.7 | 0.00 | 0.00 | 0.00 | 56 | 1018.4 |
| 20260902114507 | 61 | 352 | 0.0 | 1.7 | 0.00 | 0.00 | 0.00 | 54 | 1018.4 |
| 20260902114010 | 60 | 352 | 0.0 | 1.7 | 0.00 | 0.00 | 0.00 | 54 | 1018.4 |
| 20260902113506 | 60 | 336 | 0.0 | 1.7 | 0.00 | 0.00 | 0.00 | 54 | 1018.4 |
| 20260902113018 | 60 | 336 | 0.0 | 1.7 | 0.00 | 0.00 | 0.00 | 56 | 1018.3 |
| 20260902112510 | 60 | 240 | 0.0 | 1.7 | 0.00 | 0.00 | 0.00 | 56 | 1018.4 |
| 20260902112015 | 59 | 218 | 0.0 | 1.7 | 0.00 | 0.00 | 0.00 | 59 | 1018.4 |
| 20260902111526 | 59 | 244 | 0.0 | 1.7 | 0.00 | 0.00 | 0.00 | 60 | 1018.4 |
| 20260902111002 | 59 | 250 | 0.0 | 1.7 | 0.00 | 0.00 | 0.00 | 60 | 1018.4 |
| 20260902110506 | 60 | 210 | 0.0 | 1.7 | 0.00 | 0.00 | 0.00 | 58 | 1018.4 |
| 20260902110011 | 60 | 194 | 0.9 | 1.7 | 0.00 | 0.00 | 0.00 | 58 | 1018.5 |
| 20260902105507 | 60 | 189 | 0.9 | 1.7 | 0.00 | 0.00 | 0.00 | 57 | 1018.5 |
| 20260902105015 | 61 | 161 | 0.0 | 1.7 | 0.00 | 0.00 | 0.00 | 56 | 1018.5 |
| 20260902104532 | 61 | 71 | 0.0 | 1.7 | 0.00 | 0.00 | 0.00 | 56 | 1018.5 |
| 20260902104015 | 62 | 100 | 0.0 | 1.7 | 0.00 | 0.00 | 0.00 | 54 | 1018.5 |
| 20260902103514 | 62 | 90 | 0.0 | 1.7 | 0.00 | 0.00 | 0.00 | 54 | 1018.5 |
| 20260902103004 | 62 | 175 | 0.0 | 2.6 | 0.00 | 0.00 | 0.00 | 53 | 1018.5 |
| 20260902102506 | 62 | 232 | 0.9 | 2.6 | 0.00 | 0.00 | 0.00 | 53 | 1018.5 |
| 20260902102006 | 61 | 223 | 0.9 | 2.6 | 0.00 | 0.00 | 0.00 | 53 | 1018.4 |
| 20260902101515 | 61 | 202 | 0.9 | 2.6 | 0.00 | 0.00 | 0.00 | 56 | 1018.4 |